Location: Blanot
(47.1713°N, 4.2340°E)
Time: 08:49:45
(UTC+00:00)

Cosmos 1908 Rocket - Pass Details

Date: 14 July 2020
Orbit: 605 x 633 km, 82.5° (Epoch: 14 August)

Event Time Altitude Azimuth Distance (km) Brightness Sun altitude
Exits shadow 03:05:55 - 198° (SSW) 2,239 5.9 -8.2°
Reaches altitude 10° 03:06:29 10° 199° (SSW) 2,012 5.6 -8.1°
Maximum altitude 03:10:56 65° 281° (W) 701 3.7 -7.6°
Drops below altitude 10° 03:15:24 10° 4° (N) 2,023 6.9 -7.0°
Sets 03:17:40 0° 7° (N) 2,932 7.9 -6.7°
